STARLINK-11436, 62887

Orbit data source: Space-Track

STARLINK-11436, 62887 is a payload satellite owned by SpaceX/Seattle (US) in LEO that was launched on Tue, 04 Feb 2025 UTC via an FALCON 9 launch vehicle from the Air Force Eastern Test Range (AFETR). Payload-class satellites include a variety of spacecraft equipped with specific instruments for various scientific and technological missions. These include communications satellites like Starlink; space stations such as the ISS; scientific satellites like the Hubble; Earth observation satellites from companies like Planet Labs, Umbra, and HawkEye 360; GPS; miniature CubeSats for education and research; and military/defense satellites.

Loading next visibility...
Identifier
62887, 2025-024J
Orbit
LEO
Country
Flag of USUS
Related business
Manufacturer
SpaceX/Seattle
Mission
Operational Commercial Communications
Bus & Motor
STARLINK V2MD, Unknown motor
Mass
960 kg wet, ~910 kg dry
Launch date (UTC)
2025-02-04 (9 months ago)
Launch vehicle
FALCON 9
Launch site
Air Force Eastern Test Range (AFETR)
Object type
Payload
Rocket body
Debris
Shape & HBR
Box + 2 Pan, 18.1 m
Radar Cross Section
36.964 m², Large (>1 m²)

Expand to show TLE details & history
Last TLE update: 16 hours ago

TLE from 16 hours ago
0 STARLINK-11436
1 62887U 25024J   25303.12901886  .00252545  00000-0  19092-2 0  9998
2 62887  42.9987 248.3566 0001481 266.7400  93.3298 15.70880309 42938
Epoch: 2025-10-30T03:05Z
TLE epoch observation values (Epoch: 2025-10-30T03:05:47.229Z)
Latitude
-0.00003°
Longitude
163.21754°
Altitude
356.209 km
Speed
7.697 km/s
True Right ascension
16h 33m 25s
True Declination
0° 00' 00"
Sunlit
Object was in daylight at epoch
Visualization orbit readout
Latitude
Unknown
Longitude
Unknown
Altitude
Unknown
Speed
Unknown
Apparent Right ascension
Unknown
Apparent Declination
Unknown
Sunlit
N/A
Visualization observer readout
Local Sidereal Time
15:01:33
Azimuth
Unknown
Elevation
Unknown
Doppler factor
Unknown
Orbital elements
Apogee altitude
359.359 km
Perigee altitude
357.364 km
Semi-major axis
6,736.499 km
Eccentricity
0.00015
Inclination
42.9987°
RAAN
248.3566°
Arg. of periapsis
266.74°
True anomaly
93.34674°
Mean anomaly
93.3298°
Eccentric anomaly
93.33827°
Mean motion
3.92547 °/min
Orbital period
91.71 mins
BSTAR
0.0019092
Loading maneuver chart data...
Computing Atmospheric mass density...
Loading historical data...
Loading historical data...
Loading historical data...
Loading historical data...
Loading historical data...
Loading historical data...
Loading historical data...

Documentation

Showing up to 5 results
|